This demonstration page uses our WeatherBlox Daily Observations layout. Learn more.

Left ArrowRight Arrow

41.86663, -103.66717

Hourly Observations for July 26, 2017

Temp ( °F °C ) Dew Point ( °F °C ) Humidity (%) Winds ( mph kmh ) Pressure ( in mb ) Visibility ( mi km ) Precip ( " mm )
12:53 am 00:53 Mostly Cloudy 75 23.9 59 15 58 58 N 8 13 29.93 1014 10 16 0.00 0.00
1:17 am 01:17 Cloudy 75 23.9 60 15.6 60 60 N 8 13 29.85 1011 10 16 0.00 0.00
1:53 am 01:53 Cloudy 74 23.3 61 16.1 64 64 N 6 9 29.93 1013 10 16 0.00 0.00
2:53 am 02:53 Cloudy 73 22.8 63 17.2 71 71 NNW 7 11 29.93 1013 10 16 0.00 0.00
3:46 am 03:46 Cloudy 71 21.7 60 15.6 68 68 N 9 15 29.91 1013 10 16 0.00 0.00
3:53 am 03:53 Cloudy 71 21.7 60 15.6 68 68 N 8 13 29.94 1014 10 16 0.00 0.00
4:27 am 04:27 Cloudy 72 22 61 16 69 69 N 5 7 29.91 1013 10 16 0.00 0.00
4:53 am 04:53 Cloudy 71 21.7 59 15 66 66 NNW 7 11 29.95 1014 10 16 0.00 0.00
5:53 am 05:53 Cloudy 70 21.1 57 13.9 64 64 N 8 13 29.98 1015 10 16 0.00 0.00
6:03 am 06:03 Cloudy 70 21.1 57 13.9 64 64 NW 7 11 29.94 1014 10 16 0.00 0.00
6:33 am 06:33 Cloudy 69 20.6 57 13.9 66 66 NNW 8 13 29.94 1014 10 16 0.00 0.00
6:53 am 06:53 Cloudy 69 20.6 56 13.3 63 63 NNW 8 13 30.01 1016 10 16 0.00 0.00
7:53 am 07:53 Cloudy with Light Rain 66 18.9 61 16.1 84 84 WNW 9 15 30.04 1017 10 16 0.01 0.25
8:53 am 08:53 Cloudy 66 18.9 61 16.1 84 84 W 9 15 30.06 1018 10 16 0.00 0.03
9:53 am 09:53 Cloudy 71 21.7 58 14.4 63 63 NW 10 17 30.05 1018 10 16 0.00 0.00
10:36 am 10:36 Partly Cloudy 74 23.3 59 15 60 60 NW 9 15 29.97 1015 10 16 0.00 0.00
10:53 am 10:53 Mostly Sunny 75 23.9 60 15.6 60 60 WNW 10 17 30.05 1018 10 16 0.00 0.00
11:53 am 11:53 Partly Cloudy 79 26.1 58 14.4 49 49 N 9 15 30.04 1017 10 16 0.00 0.00
12:53 pm 12:53 Mostly Cloudy 81 27.2 58 14.4 45 45 ENE 14 22 30.04 1017 10 16 0.00 0.00
1:53 pm 13:53 Mostly Cloudy 81 27.2 58 14.4 45 45 ENE 13 20 30.04 1017 10 16 0.00 0.00
2:53 pm 14:53 Mostly Cloudy 82 27.8 58 14.4 44 44 ENE 12 19 30.04 1017 10 16 0.00 0.00
3:53 pm 15:53 Cloudy 82 27.8 58 14.4 44 44 ENE 12 19 30.03 1017 10 16 0.00 0.00
4:53 pm 16:53 Mostly Cloudy 84 28.9 58 14.4 41 41 ENE 14 22 30.02 1017 10 16 0.00 0.00
5:53 pm 17:53 Mostly Sunny 83 28.3 59 15 44 44 ENE 14 22 30.02 1017 10 16 0.00 0.00
6:53 pm 18:53 Mostly Cloudy 81 27.2 58 14.4 45 45 ENE 10 17 30.03 1017 10 16 0.00 0.00
7:53 pm 19:53 Cloudy 77 25 61 16.1 58 58 E 3 6 30.05 1018 10 16 0.00 0.00
8:53 pm 20:53 Clear 73 22.8 60 15.6 64 64 ENE 6 9 30.07 1018 10 16 0.00 0.00
9:53 pm 21:53 Cloudy 73 22.8 60 15.6 64 64 ENE 6 9 30.07 1018 10 16 0.00 0.00
10:53 pm 22:53 Mostly Clear 70 21.1 59 15 68 68 E 5 7 30.06 1018 10 16 0.00 0.00
11:53 pm 23:53 Mostly Cloudy 68 20 61 16.1 78 78 E 6 9 30.06 1018 10 16 0.00 0.00

Powered by AerisWeather